Regional Weather Roundup
Issued by NWS

Home | Current Version | Previous Version | Graphics & Text | Print | Product List | Glossary On
Versions: 1 2 3 4 5 6 7 8 9 10 11 12 13 14 15 16 17 18 19 20 21 22 23 24 25 26 27 28 29 30 31 32 33 34 35 36 37 38 39 40 41 42 43 44 45 46 47 48 49 50
000
ASUS43 KDTX 240510
RWRMI
MICHIGAN HOURLY REGIONAL WEATHER ROUNDUP
NATIONAL WEATHER SERVICE DETROIT/PONTIAC MI
100 AM EDT SAT JUN 24 2017

NOTE: "FAIR" INDICATES FEW OR NO CLOUDS BELOW 12,000 FEET WITH NO
SIGNIFICANT WEATHER AND/OR OBSTRUCTION TO VISIBILITY.

MIZ047>049-052>055-059>063-066>070-074>076-081>083-240600-
SOUTHEAST LOWER MICHIGAN

CITY           SKY/WX    TMP DP  RH WIND       PRES   REMARKS
ADRIAN         CLEAR     62  54  74 W6        29.78R
ALMA           PTCLDY    63  55  76 W7        29.74R
ANN ARBOR      CLEAR     57  56  96 SW6       29.75R
BAD AXE        PTCLDY    58  57  94 CALM      29.69S
CARO           PTCLDY    58  55  87 SW3       29.70R
DETROIT CITY   CLEAR     67  56  67 W6        29.73R
DETROIT        PTCLDY    67  57  70 W8        29.75R
FLINT          PTCLDY    65  52  62 W8        29.73R
GROSSE ILE     CLEAR     66  58  74 W5        29.73R
HILLSDALE      CLOUDY    63  52  67 W7        29.79R
HOWELL         CLOUDY    64  54  68 W6        29.75R

CITY           SKY/WX    TMP DP  RH WIND       PRES   REMARKS
JACKSON        CLOUDY    64  54  69 W7        29.77R
LAMBERTVILLE   CLEAR     63  57  80 CALM      29.76R
LANSING        CLOUDY    69  53  56 W9        29.76R
LAPEER         FAIR      64  54  69 W3        29.73R
MASON          CLOUDY    66  55  67 W3        29.76R
MONROE         CLEAR     64  59  85 W5        29.75R
MT. CLEMENS    CLEAR     66  56  71 W7        29.70R
PONTIAC        PTCLDY    64  55  72 SW5       29.73R
PORT HOPE        N/A     66  62  87 N7        29.68R
PORT HURON     PTCLDY    63  55  77 CALM      29.71R
TRI CITIES     PTCLDY    65  55  70 W9        29.71R
MIDLAND        FAIR      64  52  65 W5        29.71R
TROY           PTCLDY    65  55  70 SW6       29.75R
SAGINAW HB     PTCLDY    64  50  59 SW6       29.71R
$$
MIZ043>046-050>051-056>058-064>065-071>073-077>080-240600-
SOUTHWEST LOWER MICHIGAN

CITY           SKY/WX    TMP DP  RH WIND       PRES   REMARKS
BATTLE CREEK   PTCLDY    62  56  80 W8        29.79R
BENTON HARBOR  MOCLDY    68  57  68 NW8       29.81R
BIG RAPIDS     CLOUDY    61  53  73 W8G17     29.74S
COLDWATER      PTCLDY    61  55  81 SW6       29.80R
FREMONT        FAIR      62  53  74 W6        29.76R
HOLLAND        PTCLDY    66  56  70 NW6       29.79R
GRAND RAPIDS   MOCLDY    66  57  72 W8        29.77R
IONIA          MOCLDY    65  56  74 W10       29.76R
KALAMAZOO      PTCLDY    65  53  65 W7        29.80R
LUDINGTON      CLOUDY    64  56  74 NW7       29.75R
MARSHALL       CLOUDY    61  54  77 SW3       29.78R
MOUNT PLEASANT PTCLDY    64  54  69 W7        29.72R
MUSKEGON       PTCLDY    67  56  67 NW9       29.78R
SOUTH HAVEN    MOCLDY    67  58  72 NW10      29.80R
$$
MIZ016>042-240600-
NORTHERN LOWER MICHIGAN

CITY           SKY/WX    TMP DP  RH WIND       PRES   REMARKS
ALPENA         PTCLDY    60  51  72 CALM      29.70R
BEAVER ISLAND  CLEAR     51  49  94 CALM      29.72R
BELLAIRE       MOCLDY    56  52  89 CALM      29.72R
CADILLAC       PTCLDY    56  52  85 CALM      29.74R
CHARLEVOIX     PTCLDY    58  53  85 CALM      29.74S
FRANKFORT      PTCLDY    56  53  88 CALM      29.74R
GAYLORD        MOCLDY    61  47  59 CALM      29.73R
GRAYLING       PTCLDY    57  50  78 CALM      29.73R
HARBOR SPRINGS PTCLDY    56  53  91 CALM      29.71R
HOUGHTON LAKE  PTCLDY    61  51  70 N3        29.73R
MANISTEE       CLOUDY    60  57  89 CALM      29.74R
OSCODA         MOCLDY    59  54  82 N5        29.69R
PELLSTON       PTCLDY    53  49  86 CALM      29.71R
ROGERS CITY    PTCLDY    57  51  80 W5        29.70S
TRAVERSE CITY  CLEAR     61  55  81 CALM      29.72R
$$
MIZ007>008-015-240600-
EASTERN UPPER MICHIGAN

CITY           SKY/WX    TMP DP  RH WIND       PRES   REMARKS
KINROSS        CLEAR     51  48  89 W5        29.69R
MACKINAC ISLAN PTCLDY    53  50  89 W5        29.69R
NEWBERRY       CLEAR     51  50  97 W7        29.69S
S. S. MARIE    CLEAR     52  47  83 W6        29.67R
MUNISING         N/A     51  49  92 S3        29.70S
$$
MIZ004>006-011>014-085-240600-
CENTRAL UPPER MICHIGAN

CITY           SKY/WX    TMP DP  RH WIND       PRES   REMARKS
MANISTIQUE     CLEAR     49  46  90 NW3       29.70S
ESCANABA       CLEAR     57  50  77 W5        29.73R
MENOMINEE      CLEAR     59  51  75 CALM      29.76R
SAWYER-GWINN   CLEAR     54  48  80 W3        29.73S
$$
MIZ001>003-009>011-084-240600-
WESTERN UPPER MICHIGAN

CITY           SKY/WX    TMP DP  RH WIND       PRES   REMARKS
IRON MOUNTAIN  CLEAR     54  46  74 CALM      29.75R
HOUGHTON       CLEAR     51  46  83 NW9       29.73R
COPPER HARBOR    N/A     57  48  72 N12       29.71R
IRONWOOD       MOCLDY    57  52  83 W13       29.81R
$$

ABBREVIATIONS USED IN REMARKS
   TC - TEMPERATURE IN CELSIUS
  WCI - WIND CHILL INDEX
   HX - HEAT INDEX
  VSB - VISIBILITY




USA.gov is the U.S. government's official web portal to all federal, state and local government web resources and services.